Regional Weather Roundup
Issued by NWS

Home | Current Version | Previous Version | Graphics & Text | Print | Product List | Glossary On
Versions: 1 2 3 4 5 6 7 8 9 10 11 12 13 14 15 16 17 18 19 20 21 22 23 24 25 26 27 28 29 30 31 32 33 34 35 36 37 38 39 40 41 42 43 44 45 46 47 48 49 50
000
ASUS43 KMKX 300121
RWRWI

WISCONSIN REGIONAL WEATHER ROUNDUP
NATIONAL WEATHER SERVICE MILWAUKEE/SULLIVAN WI
800 PM CDT MON SEP 29 2014

NOTE: "FAIR" INDICATES FEW OR NO CLOUDS BELOW 12,000 FEET WITH NO
SIGNIFICANT WEATHER AND/OR OBSTRUCTIONS TO VISIBILITY.

WIZ001-002-006>008-014>016-023>028-300200-
NORTHWEST WISCONSIN

CITY           SKY/WX    TMP DP  RH WIND       PRES   REMARKS
SUPERIOR ARPT  CLOUDY    46  39  78 E9        30.20S
ASHLAND        CLOUDY    43  40  89 NE8       30.21S
HAYWARD        CLOUDY    43  39  86 NE7       30.18R
SIREN          CLOUDY    46  39  77 NE9       30.16S
CUMBERLAND     CLOUDY    45  39  81 NE9       30.14S
RICE LAKE      CLEAR     45  39  81 NE8       30.16R
CHETEK         CLEAR     47  40  78 N6        30.14R
LADYSMITH      CLOUDY    45  39  81 NE9       30.16S
EAU CLAIRE     CLEAR     50  41  71 N7        30.11R
MENOMONIE      CLEAR     51  42  70 N10       30.11S
NEW RICHMOND   CLEAR     47  41  79 NE5       30.13S
OSCEOLA        CLEAR     48  42  80 N9        30.16S
$$

WIZ003>005-009-010-017-018-300200-
NORTH CENTRAL WISCONSIN

CITY           SKY/WX    TMP DP  RH WIND       PRES   REMARKS
MANITOWISH WTR CLOUDY    38  38 100 N9        30.16S WCI  31
ARBOR VITAE    CLOUDY    39  37  91 N8G16     30.15S WCI  34
WOODRUFF       CLOUDY    39  37  91 N8G16     30.15S WCI  34
RHINELANDER    CLOUDY    39  36  89 N8        30.14S WCI  33
EAGLE RIVER    CLOUDY    38  37  99 N10       30.14S FOG     WCI  30
LAND O LAKES   CLOUDY    38  37  97 N8        30.16R FOG     WCI  32
PHILLIPS       CLOUDY    40  37  87 NE10      30.15R WCI  34
TOMAHAWK       CLOUDY    40  36  83 NE8       30.14S
MEDFORD        MOCLDY    42  38  86 NE7       30.12R
MERRILL        CLOUDY    44  39  84 N8        30.12S
$$

WIZ029-030-035-036-043>047-300200-
CENTRAL WISCONSIN

CITY           SKY/WX    TMP DP  RH WIND       PRES   REMARKS
WAUSAU         MOCLDY    47  39  74 NE9       30.09S
MOSINEE        PTCLDY    46  43  87 NE10      30.11R
MARSHFIELD     CLEAR     49  42  77 NE9       30.09R
STEVENS POINT  MOCLDY    47  41  80 NE10      30.10R
WAUPACA        CLOUDY    54  47  77 N5        30.09R
WAUTOMA        NOT AVBL
WISC RAPIDS    CLOUDY    53  43  68 NE14      30.09S
CAMP DOUGLAS   CLEAR     50  50 100 NE5       30.07S
$$

WIZ011>013-019>022-031-037>040-048>050-300200-
NORTHEAST WISCONSIN

CITY           SKY/WX    TMP DP  RH WIND       PRES   REMARKS
ANTIGO         CLOUDY    42  38  85 N9G17     30.11R
SHAWANO        CLOUDY    49  41  73 N13       30.11R
OCONTO         CLOUDY    47  41  78 N9        30.10R
STURGEON BAY   NOT AVBL
GREEN BAY      CLOUDY    49  44  83 N10       30.09R
MANITOWOC      NOT AVBL
APPLETON       CLOUDY    48  41  76 NE12G18   30.09R
CLINTONVILLE   CLOUDY    46  39  76 NE9G18    30.10R
OSHKOSH        CLOUDY    51  47  86 N17       30.07R
$$

WIZ032>034-041-042-053>061-300200-
SOUTHWEST WISCONSIN

CITY           SKY/WX    TMP DP  RH WIND       PRES   REMARKS
LA CROSSE      PTCLDY    56  49  77 NE5       30.07R
SPARTA         CLEAR     49  47  93 CALM      30.08R
VIROQUA        CLOUDY    54  50  87 N10       30.06S
BOSCOBEL       CLOUDY    57  50  77 NE9       30.06R
PRAIRIE DU CHI CLOUDY    57  50  76 N10       30.04R
PLATTEVILLE    CLOUDY    58  54  86 N15G21    30.03R
$$

WIZ056-057-062-063-064-067-068-300200-
SOUTH CENTRAL WISCONSIN

CITY           SKY/WX    TMP DP  RH WIND       PRES   REMARKS
REEDSBURG      CLOUDY    53  50  90 N7        30.06S
BARABOO/DELLS  CLOUDY    52  49  91 NE6       30.06S
LONE ROCK      CLOUDY    59  51  75 NE14      30.06R
MINERAL POINT  CLOUDY    55  52  88 NE15      30.04R
MADISON        CLOUDY    52  48  86 NE13      30.05R
MIDDLETON      CLOUDY    53  51  93 NE12      30.05S
WATERTOWN      CLOUDY    50  49  96 NE9G17    30.04S
MONROE         LGT RAIN  54  52  94 N25       30.02R
JANESVILLE     CLOUDY    59  52  77 NE14      30.01R
$$

WIZ051-052-058>065-066-070>072-300200-
SOUTHEAST WISCONSIN

CITY           SKY/WX    TMP DP  RH WIND       PRES   REMARKS
MILWAUKEE      RAIN      51  48  89 N9        30.04R
WAUKESHA       CLOUDY    48  48 100 NE7       30.05R
MILWAUKEE/TIMM NOT AVBL
RACINE         LGT RAIN  53  50  89 N15G26    30.04R
BURLINGTON     LGT RAIN  52  48  87 NE12      30.03R
KENOSHA        CLOUDY    53  50  89 N10G21    30.03R
FOND DU LAC    CLOUDY    52  48  86 N13       30.07R
SHEBOYGAN      LGT RAIN  49  47  93 N10       30.06R FOG
WEST BEND      CLOUDY    48  45  87 N6        30.05R
JUNEAU         CLOUDY    50  48  95 N8        30.06S FOG
$$

LSZ147-162-300200-
LAKE SUPERIOR

STATION/POSITION TIME  TEMP    WIND        PRES    WAVE
                       AIR SEA DIR/SP/G            HT/PER
                 (UTC) (F)     (DEG/KT/KT) (MB)    (FT/S)
W MID LAKE BUOY  0050   45 49   50/ 12/ 16 1023.5R   5/ 8
DEVILS ISLAND    0100   46      70/ 12/ 15 1023.8R
SAXON HARBOR     0000   45      80/  4/ 10 1022.7
$$

LMZ867-665-643>646-300200-
LAKE MICHIGAN

STATION/POSITION TIME  TEMP    WIND        PRES    WAVE
                       AIR SEA DIR/SP/G            HT/PER
                 (UTC) (F)     (DEG/KT/KT) (MB)    (FT/S)
CHAMBERS ISLAND  0000   49     340/ 22/ 26 1019.0R
S GREEN BAY BUOY 0100   51                 1019.6R
N MID LAKE BUOY  0050   47 58  350/ 23/ 29 1017.5R   5/ 6
NORTHPORT PIER   0001   48     340/ 23     1018.3R
KEWAUNEE LAKESHO 0100   48      10/ 13/ 18 1017.6R
SHEBOYGAN LAKESH 0100   51 56   10/ 24/ 28 1018.1R
PORT WASHINGTON  0040           10/  4/ 12 1017.9S
ATWATER BUOY     0100   53      20/ 21/ 27 1018.1R
MILWAUKEE LAKESH 0100          360/ 14/ 18   N/A
S MID LAKE BUOY  0050   56 63  350/ 25/ 31 1015.0R   7/ 6
KENOSHA   LAKESH 0100          360/ 21/ 27 1016.3R
$$

TC  - TEMPERATURE IN CELSIUS
VSB - VISIBILITY IN STATUTE MILES
WCI - WIND CHILL INDEX
HX  - HEAT INDEX




USA.gov is the U.S. government's official web portal to all federal, state and local government web resources and services.